TimePST,TemperatureF,Dew PointF,Humidity,Sea Level PressureIn,VisibilityMPH,Wind Direction,Wind SpeedMPH,Gust SpeedMPH,PrecipitationIn,Events,Conditions,WindDirDegrees,DateUTC
12:53 AM,60.1,53.1,78,29.99,10.0,SSW,3.5,-,N/A,,Overcast,200,2012-11-26 08:53:00
1:53 AM,61.0,52.0,72,30.01,10.0,ENE,4.6,-,N/A,,Overcast,70,2012-11-26 09:53:00
2:17 AM,60.8,51.8,72,30.01,10.0,East,4.6,-,N/A,,Overcast,80,2012-11-26 10:17:00
2:53 AM,60.1,52.0,75,30.01,10.0,ENE,5.8,-,N/A,,Overcast,70,2012-11-26 10:53:00
3:53 AM,60.1,52.0,75,30.00,10.0,East,4.6,-,N/A,,Overcast,80,2012-11-26 11:53:00
4:53 AM,61.0,51.1,70,30.01,10.0,East,4.6,-,N/A,,Overcast,80,2012-11-26 12:53:00
5:53 AM,60.1,51.1,72,30.02,10.0,NE,4.6,-,N/A,,Overcast,40,2012-11-26 13:53:00
6:53 AM,60.1,50.0,69,30.04,10.0,ESE,3.5,-,N/A,,Overcast,120,2012-11-26 14:53:00
7:53 AM,61.0,50.0,67,30.06,10.0,East,4.6,-,N/A,,Overcast,80,2012-11-26 15:53:00
8:53 AM,62.1,51.1,67,30.07,10.0,SSW,4.6,-,N/A,,Mostly Cloudy,200,2012-11-26 16:53:00
9:53 AM,62.1,50.0,65,30.09,10.0,Calm,Calm,-,N/A,,Mostly Cloudy,0,2012-11-26 17:53:00
10:51 AM,64.4,51.8,64,30.06,10.0,Calm,Calm,-,N/A,,Scattered Clouds,0,2012-11-26 18:51:00
10:53 AM,64.9,51.1,61,30.06,10.0,Calm,Calm,-,N/A,,Partly Cloudy,0,2012-11-26 18:53:00
11:53 AM,66.9,51.1,57,30.05,10.0,Variable,3.5,-,N/A,,Partly Cloudy,0,2012-11-26 19:53:00
12:53 PM,66.9,52.0,59,30.04,10.0,SW,6.9,-,N/A,,Scattered Clouds,220,2012-11-26 20:53:00
1:53 PM,66.0,52.0,60,30.04,10.0,SSW,6.9,-,N/A,,Scattered Clouds,210,2012-11-26 21:53:00
2:53 PM,66.0,52.0,60,30.03,10.0,SW,6.9,-,N/A,,Scattered Clouds,230,2012-11-26 22:53:00
3:53 PM,63.0,51.1,65,30.03,10.0,SSW,8.1,-,N/A,,Scattered Clouds,210,2012-11-26 23:53:00
4:53 PM,62.1,51.1,67,30.04,10.0,SW,6.9,-,N/A,,Scattered Clouds,230,2012-11-27 00:53:00
5:53 PM,61.0,52.0,72,30.06,10.0,Calm,Calm,-,N/A,,Scattered Clouds,0,2012-11-27 01:53:00
6:53 PM,61.0,52.0,72,30.07,10.0,Calm,Calm,-,N/A,,Clear,0,2012-11-27 02:53:00
7:53 PM,59.0,51.1,75,30.08,10.0,Calm,Calm,-,N/A,,Clear,0,2012-11-27 03:53:00
8:53 PM,57.9,51.1,78,30.09,10.0,SSW,3.5,-,N/A,,Partly Cloudy,210,2012-11-27 04:53:00
9:53 PM,57.0,50.0,77,30.11,10.0,ESE,3.5,-,N/A,,Partly Cloudy,110,2012-11-27 05:53:00
10:53 PM,57.0,50.0,77,30.10,10.0,Calm,Calm,-,N/A,,Partly Cloudy,0,2012-11-27 06:53:00
11:53 PM,55.0,50.0,83,30.11,10.0,Calm,Calm,-,N/A,,Clear,0,2012-11-27 07:53:00